Flag for Poland Weather past 2 weeks in Radom, Poland

Now
46 °F

Fog.


Feels Like: 46 °F
Forecast: 53 / 62 °F
Wind: 1 mph from Northeast

Location: Kielce

Current Time: Sep 5, 2015 at 3:16:53 AM

Latest Report: Sep 5, 2015 at 2:00 AM


Visibility: 0 mi

Pressure: 29.98 "Hg

Humidity: 100%

Dew point: 46 °F

Location of RadomLocation

Historic Weather in Radom — Graph

°F

Radom temperature yesterday

Maximum temperature yesterday: 64 °F (at 5:00 PM)
Minimum temperature yesterday: 50 °F (at 11:00 PM)
Average temperature yesterday: 58 °F

Past Weeks' High & Low Weather Summary

 TemperatureHumidityPressure
High94 °F (Aug 31, 3:00 PM)100% (Aug 25, 10:00 PM)30.34 "Hg (Aug 25, 10:00 PM)
Low46 °F (Sep 5, 2:00 AM)22% (Aug 31, 3:00 PM)29.70 "Hg (Sep 1, 5:00 PM)
Average67 °F65%30.05 "Hg
* Reported Aug 21 2:00 AM — Sep 5 2:00 AM, Radom, Weather by CustomWeather, © 2015

Note: Actual official high and low records may vary slightly from our data, if they occured in-between our weather recording intervals... More about our weather records

Advertising

Radom weather history for previous 24 hours

 ConditionsComfort  
Time TempWeatherWind HumidityBarometerVisibility
2:00 AM
Sat, Sep 5
46 °FFog.1 mph100%29.98 "Hg0 mi
11:00 PM
Fri, Sep 4
50 °FFog.1 mph100%29.98 "Hg0 mi
8:00 PM58 °FPassing clouds.1 mph90%29.96 "Hg9 mi
7:00 PM61 °FPartly sunny.1 mph77%29.95 "Hg19 mi
5:00 PM64 °FPassing clouds.2 mph66%29.94 "Hg19 mi
4:00 PM62 °FPartly sunny.3 mph75%29.95 "Hg28 mi
3:00 PM62 °FSprinkles. Overcast.3 mph75%29.94 "Hg19 mi
2:00 PM60 °FOvercast.5 mph83%29.95 "Hg6 mi
1:00 PM58 °FSprinkles. Overcast.5 mph89%29.94 "Hg6 mi
12:00 PM57 °FLight rain. Low clouds.3 mph91%29.92 "Hg6 mi
11:00 AM57 °FDrizzle. Low clouds.2 mph95%29.89 "Hg5 mi
10:00 AM56 °FLight rain. Low clouds.2 mph97%29.88 "Hg3 mi
9:00 AM56 °FRain showers. Low clouds.2 mph96%29.86 "Hg2 mi
8:00 AM56 °FLight rain. Low clouds.3 mph96%29.85 "Hg4 mi
7:00 AM54 °FRain. Low clouds.2 mph96%29.86 "Hg3 mi
6:00 AM55 °FRain showers. Low clouds.3 mph95%29.87 "Hg2 mi
5:00 AM56 °FRain. Overcast.3 mph89%29.90 "Hg2 mi
4:00 AM59 °FThundershowers. Overcast.2 mph74%29.90 "Hg11 mi
3:00 AM59 °FOvercast.2 mph68%29.91 "Hg28 mi
Weather by CustomWeather, © 2015

See weather overviewHow to use our weather pages